sat.trackr.live / text

‹ back to catalog

STARLINK-32007

NORAD 60094 · 2024-117D

PAYLOAD ACTIVE UNKNOWN

§ Identity

Operator
Country
US
Launch date
2024-06-23
Launch site
AFETR
Launch vehicle
Mass (kg)
RCS (m²)

Purposes: comms

External: N2YO · Heavens-Above · Gunter

§ Orbital elements

Epoch: 2026-05-24T23:17:21.736608Z

Period
94.11 min
Inclination
53.1624°
Eccentricity
0.0001296
Mean motion
15.30190607 rev/d
Perigee alt
474.4 km
Apogee alt
476.1 km
Semi-major
6,853.4 km
B*
-8.7520e-6
RAAN
42.9323°
Arg perigee
91.9611°
Mean anomaly
268.1538°
Rev number
10,856

§ Raw data

STARLINK-320071 60094U 24117D   26144.97039047 -.00000618  00000+0 -87520-5 0  99932 60094  53.1624  42.9323 0001296  91.9611 268.1538 15.30190607108565

JSON: /api/v1/satellites/60094 · /tle

For live sub-satellite position, see the globe view (requires WebGL).

§ Visibility from observer

Set your observer location to see the next 7 days of passes ≥ 10°. The values pass through the URL so the page stays shareable.

No JS? Fill the form by hand. The geolocation button needs JavaScript.